Hourly Data Report for June 03, 2021

TORONTO CITY
ONTARIO
Current Station Operator: ECCC - MSC

43°40'00.000" N
79°24'00.000" W
112.50 m
6158355
71508
XTO

Download Data

Hourly Data (June 2021)
Hourly Data Report for June 3, 2021
TIME
LST
Temp Definition
°C
Dew Point Definition
°C
Rel Hum Definition
%
Precip. Amount Definition
mm

Wind Dir Definition
10's deg

Wind Spd Definition
km/h
Visibility Definition
km
Stn Press Definition
kPa
Hmdx Definition


Wind Chill Definition


Weather Definition


00:00 15.3 14.4 94 2.9       100.22     LegendNANA
01:00 15.6 14.7 94 1.5       100.12     LegendNANA
02:00 15.9 15.0 94 0.1       100.06     LegendNANA
03:00 15.8 15.0 95 0.2       100.01     LegendNANA
04:00 15.6 14.8 95 0.7       99.97     LegendNANA
05:00 15.1 14.4 95 0.0       99.95     LegendNANA
06:00 15.1 14.3 95 1.2       99.93     LegendNANA
07:00 15.2 14.4 95 0.8       99.91     LegendNANA
08:00 15.2 14.4 95 0.0       99.90     LegendNANA
09:00 15.4 14.5 94 0.1       99.89     LegendNANA
10:00 16.0 14.9 94 0.0       99.86     LegendNANA
11:00 17.8 15.2 85 0.0       99.88     LegendNANA
12:00 19.0 15.5 80 0.0       99.85     LegendNANA
13:00 20.7 16.6 77 0.0       99.83 26   LegendNANA
14:00 19.9 14.1 69 0.0       99.78     LegendNANA
15:00 20.0 15.4 75 0.0       99.75     LegendNANA
16:00 21.0 15.3 70 0.0       99.68 25   LegendNANA
17:00 20.1 15.4 74 0.0       99.66     LegendNANA
18:00 20.6 16.4 77 0.0       99.64 25   LegendNANA
19:00 19.6 15.6 78 0.0       99.64     LegendNANA
20:00 18.4 15.4 83 0.0       99.67     LegendNANA
21:00 17.8 15.4 86 0.0       99.72     LegendNANA
22:00 17.1 15.1 88 0.0       99.76     LegendNANA
23:00 16.7 15.1 90 0.0       99.77     LegendNANA

Notes on Data Quality.

Legend

  • E = Estimated
  • M = Missing
  • NA = Not Available*
  • [empty] = Indicates an unobserved value
Date modified: